Regional Weather Roundup
Issued by NWS

Home | Current Version | Previous Version | Text Only | Print | Product List | Glossary On
Versions: 1 2 3 4 5 6 7 8 9 10 11 12 13 14 15 16 17 18 19 20 21 22 23 24 25 26 27 28 29 30 31 32 33 34 35 36 37 38 39 40 41 42 43 44 45 46 47 48 49 50
563
ASUS43 KLSX 270910
RWRMO

WEATHER SUMMARY FOR MISSOURI
NATIONAL WEATHER SERVICE SPRINGFIELD MO
400 AM CDT MON MAR 27 2017

NOTE: "FAIR" INDICATES FEW OR NO CLOUDS BELOW 12,000 FEET WITH NO
       SIGNIFICANT WEATHER AND/OR OBSTRUCTIONS TO VISIBILITY.
       CURRENT SKY AND/OR WEATHER CONDITIONS ARE NOT AVAILABLE FOR
       CHILLICOTHE AND FARMINGTON.

MOZ001>031-035>038-043-044-053-054-271000-
...NORTHERN AND WESTERN MISSOURI...

CITY           SKY/WX    TMP DP  RH WIND       PRES   REMARKS
KANSAS CTY INT DRIZZLE   46  45  96 NE13      29.82F
KANSAS C DTWN  MOCLDY    47  45  93 NE9       29.81S
LEE`S SUMMIT   MOCLDY    47  46  97 NE18      29.80F
ST JOSEPH      LGT RAIN  46  45  96 NE10      29.87F
CHILLICOTHE      N/A     47  45  93 CALM      29.91S
KIRKSVILLE     CLOUDY    46  44  93 NE3       29.88F

$$
MOZ066>068-077>081-088>096-101>105-271000-
...SOUTHWEST MISSOURI...

CITY           SKY/WX    TMP DP  RH WIND       PRES   REMARKS
SPRINGFIELD    LGT RAIN  56  53  90 W9        29.82R
JOPLIN         LGT RAIN  56  56 100 VRB3      29.77S
BRANSON        CLOUDY    55  55 100 S3        29.78S

$$
MOZ032>034-039>042-045>050-055>058-069>072-271000-
...CENTRAL MISSOURI...

CITY           SKY/WX    TMP DP  RH WIND       PRES   REMARKS
COLUMBIA       LGT RAIN  49  49 100 NE7       29.86F
JEFFERSON CITY LGT RAIN  54  49  83 VRB5      29.85F
ROLLA          LGT RAIN  52  50  93 S3        29.84F
SEDALIA        CLOUDY    50  48  93 NE10      29.84F
WARRENSBURG    RAIN      46  45  93 NE7       29.84F
OSAGE BEACH    LGT RAIN N/A N/A N/A NE8       29.83F

$$
MOZ051-052-059>065-271000-
...EAST CENTRAL MISSOURI...

CITY           SKY/WX    TMP DP  RH WIND       PRES   REMARKS
ST LOUIS INTL  CLOUDY    52  48  86 NE5       29.88F
SPIRIT OF STL  CLOUDY    49  49 100 E3        29.86F
ST CHARLES     CLOUDY    51  49  92 NE9       29.88F

$$
MOZ072>076-082>087-097>100-106>115-271000-
...SOUTH CENTRAL AND SOUTHEAST MISSOURI...

CITY           SKY/WX    TMP DP  RH WIND       PRES   REMARKS
CAPE GIRARDEAU CLOUDY    52  48  86 E6        29.87F
FARMINGTON     CLOUDY    50  48  93 SE3       29.87F
POPLAR BLUFF   CLOUDY    56  53  90 E6        29.83F
WEST PLAINS    RAIN      55  53  93 CALM      29.87S FOG

$$




USA.gov is the U.S. government's official web portal to all federal, state and local government web resources and services.